#timestamp,LO_Frequency,Hit,StdDev 
1502686815.6,286046998.5,P,0.4
1502686835.4,286046998.1,P,0.5
1502686855.3,286046998.4,P,0.4
1502686875.1,286046998.5,Y,0.0
1502686895.9,286047000.4,P,0.9
1502686915.7,286047000.7,N,0.9
1502686935.6,286046999.9,N,0.8
1502686955.4,286047000.7,N,0.8
1502686975.2,286046998.1,N,1.0
1502686995.1,286046999.3,N,1.0
1502686996.0,286046999.3,N,0.9
1502687015.8,286046998.7,N,0.9
1502687035.7,286047000.8,N,0.9
1502687055.5,286047001.2,N,1.0
1502687075.3,286047000.9,N,1.0
1502687095.2,286046998.2,N,1.1
1502687115.0,286047000.5,N,1.0
1502687115.9,286047000.5,N,1.0
1502687135.8,286047000.3,N,1.0
1502687155.6,286047000.9,N,1.0
1502687175.4,286047001.2,N,1.0
1502687195.3,286047000.5,N,1.0
1502687215.1,286047001.2,N,1.0
1502687235.9,286047000.8,N,1.0
1502687255.7,286046998.1,N,1.1
1502687275.5,286046996.5,Y,0.0
1502687295.4,286046998.7,P,0.7
1502687315.2,286047000.5,N,0.8
1502687335.0,286047001.2,N,0.9
1502687335.9,286047001.2,N,0.9
1502687355.8,286047001.1,N,0.9
1502687375.6,286047000.7,N,0.8
1502687395.5,286047000.0,N,0.8
1502687415.3,286047000.6,N,0.8
1502687435.1,286047000.1,N,0.7
1502687455.9,286047000.2,N,0.7
1502687475.7,286046999.8,N,0.7
1502687495.6,286047002.7,Y,0.0
1502687515.4,286047000.1,P,0.1
1502687535.2,286047000.1,N,0.1
1502687555.1,286047000.4,P,0.1
1502687556.0,286047000.4,N,0.1
1502687575.8,286047000.6,Y,0.0
1502687595.7,286047002.4,P,1.1
1502687615.5,286047002.1,N,0.9
1502687635.3,286047002.0,N,0.8
1502687655.2,286047002.2,N,0.8
1502687675.0,286047002.0,N,0.7
1502687675.9,286047002.0,N,0.7
1502687695.8,286047002.0,N,0.6
1502687715.6,286047001.4,N,0.6
1502687735.4,286047001.9,Y,0.0
1502687755.3,286046999.9,P,1.0
1502687775.1,286047002.6,N,1.1
1502687795.9,286047002.5,N,1.1
1502687815.7,286047002.2,N,1.0
1502687835.5,286047002.1,N,0.9
1502687855.4,286047002.5,N,0.9
1502687875.2,286047002.2,N,0.8
1502687895.1,286047002.4,N,0.8
1502687896.0,286047002.4,Y,0.0
1502687915.8,286047000.9,P,0.6
1502687935.6,286047000.2,N,0.8
1502687955.5,286047000.3,N,0.7
1502687975.3,286047000.7,N,0.7
1502687995.2,286047000.3,N,0.6
1502688015.9,286047002.7,Y,0.0
1502688035.7,286047001.2,P,0.2
1502688055.6,286047000.7,N,0.2
1502688075.4,286047001.1,P,0.2
1502688095.3,286046998.4,Y,0.0
1502688115.1,286046999.4,P,0.8
1502688116.0,286046999.4,N,0.7
1502688135.8,286046999.5,N,0.7
1502688155.7,286046999.5,N,0.6
1502688175.5,286046998.9,N,0.6
1502688195.3,286046999.5,N,0.6
1502688215.2,286046996.9,Y,0.0
1502688235.0,286046999.4,P,0.1
1502688235.9,286046999.4,P,0.1
1502688255.8,286046999.1,P,0.2
1502688275.6,286046998.7,Y,0.0
1502688295.5,286046998.2,P,0.6
1502688315.3,286046998.2,P,0.6
1502688335.1,286046998.3,P,0.5
1502688355.9,286047000.4,N,0.9
1502688375.7,286047000.2,N,0.9
1502688395.6,286047002.7,N,1.5
1502688415.4,286047002.7,N,1.8
1502688435.2,286047002.7,N,1.9
1502688455.1,286047000.9,N,1.8
1502688456.0,286047000.9,N,1.7
1502688475.8,286047000.4,N,1.6
1502688495.7,286047001.1,N,1.6
1502688515.5,286047000.9,N,1.5
1502688535.3,286047000.4,N,1.5
1502688555.2,286047000.1,N,1.4
1502688575.0,286046999.7,N,1.4
1502688575.9,286046999.7,N,1.4
1502688595.8,286047000.1,N,1.3
1502688615.6,286047002.8,N,1.4
1502688635.4,286047000.0,N,1.4
1502688655.3,286047000.3,N,1.3
1502688675.1,286047000.8,N,1.3
1502688695.9,286047000.2,N,1.3
1502688715.7,286047002.2,N,1.3
1502688735.5,286047002.7,N,1.3
1502688755.4,286047001.9,N,1.3
1502688775.2,286047002.2,N,1.3
1502688795.0,286046999.7,N,1.3
1502688795.9,286046999.7,N,1.3
1502688815.8,286047002.8,N,1.4
1502688835.6,286047002.8,N,1.3
1502688855.5,286047002.3,N,1.2
1502688875.3,286047002.1,N,1.1
1502688895.1,286047002.3,N,1.2
1502688915.9,286047002.4,N,1.2
1502688935.7,286047000.0,N,1.1
1502688955.5,286047002.2,N,1.1
1502688975.4,286047001.4,N,1.1
1502688995.2,286047001.4,N,1.1
1502689015.0,286047001.9,N,1.1
1502689016.0,286047001.9,N,1.1
1502689035.8,286047001.6,N,1.1
1502689055.6,286047001.5,N,1.1
1502689075.5,286047001.7,N,1.1
1502689095.3,286047001.8,N,1.1
1502689115.1,286047002.6,N,1.0
1502689135.9,286047001.8,N,1.0
1502689155.7,286047001.5,N,0.9
1502689175.6,286047004.3,Y,0.0
1502689195.4,286046999.9,P,0.9
1502689215.2,286047002.8,P,1.2
1502689235.1,286046999.8,N,1.3
1502689236.0,286046999.8,N,1.2
1502689255.8,286047002.3,N,1.3
1502689275.7,286047002.4,N,1.3
1502689295.5,286047002.2,N,1.2
1502689315.3,286047002.2,N,1.2
1502689335.2,286047001.9,N,1.1
1502689355.0,286047002.4,N,1.1
1502689355.9,286047002.4,N,1.1
1502689375.8,286047011.9,Y,0.0
1502689395.6,286046998.7,P,1.5
1502689415.4,286046999.3,N,1.3
1502689435.3,286047000.8,N,1.2
1502689455.1,286047001.0,N,1.1
1502689475.9,286047002.8,N,1.4
1502689495.7,286047002.2,N,1.4
1502689515.5,286047002.5,N,1.4
1502689535.4,286047002.3,N,1.4
1502689555.2,286047000.5,N,1.3
1502689575.1,286047002.8,N,1.3
1502689576.0,286047002.8,N,1.3
1502689595.8,286047002.8,N,1.3
1502689615.6,286046999.8,N,1.4
1502689635.5,286047000.5,N,1.3
1502689655.3,286047002.3,N,1.3
1502689675.2,286047000.2,N,1.3
1502689695.9,286047002.7,N,1.3
1502689715.7,286047002.5,N,1.3
1502689735.6,286047002.2,N,1.3
1502689755.4,286047000.0,N,1.3
1502689775.3,286047000.5,N,1.3
1502689795.1,286047000.9,N,1.2
1502689796.0,286047000.9,N,1.2
1502689815.8,286047000.0,N,1.2
1502689835.7,286047000.0,N,1.2
1502689855.5,286046999.8,N,1.2
1502689875.4,286047002.3,N,1.2
1502689895.2,286047002.3,N,1.2
1502689915.0,286047000.1,N,1.2
1502689915.9,286047000.1,N,1.2
1502689935.8,286047002.4,N,1.2
1502689955.6,286047000.4,N,1.1
1502689975.5,286047000.6,N,1.1
1502689995.3,286047002.8,N,1.2
1502690015.1,286047002.4,N,1.1
1502690035.9,286047002.3,N,1.1
1502690055.7,286047002.5,N,1.1
1502690075.5,286047002.6,N,1.1
1502690095.4,286047002.5,N,1.2
1502690115.2,286047002.4,N,1.1
1502690135.1,286047002.0,N,1.1
1502690136.0,286047002.0,N,1.1
1502690155.8,286047000.2,N,1.1
1502690175.6,286047000.2,N,1.1
1502690195.5,286047000.4,N,1.1
1502690215.3,286047000.3,N,1.1
1502690235.2,286047000.3,N,1.1
1502690255.9,286047000.3,N,1.1
1502690275.7,286047000.4,N,1.0
1502690295.6,286047002.7,N,1.1
1502690315.4,286047002.8,N,1.1
1502690335.3,286047001.6,N,1.1
1502690355.1,286047001.7,N,1.1
1502690356.0,286047001.7,N,1.1
1502690375.8,286047003.9,Y,0.0
1502690395.7,286047002.7,P,0.6
